Location: Round Knob
(37.2473°N, 88.7376°W)
Time: 13:48:29
(UTC+00:00)

Cosmos 1400 Rocket - Pass Details

Date: 29 October 2020
Orbit: 521 x 568 km, 81.2° (Epoch: 03 December)

Event Time Altitude Azimuth Distance (km) Brightness Sun altitude
Rises 23:26:17 0° 181° (S) 2,751 6.6 -5.9°
Reaches altitude 10° 23:28:28 10° 179° (S) 1,856 5.7 -6.4°
Maximum altitude 23:32:32 68° 97° (E) 609 2.8 -7.1°
Drops below altitude 10° 23:36:36 10° 14° (NNE) 1,853 5.3 -7.9°
Sets 23:38:47 0° 12° (NNE) 2,745 6.1 -8.4°
